Location: Unspecified
(40.0180°N, 0.0000°E)
Time: 22:24:34
(UTC+00:00)

CZ-4C DEB - Visible Passes

Search period start: 04 April 2026 00:00
Search period end: 14 April 2026 00:00
Orbit: 558 x 730 km, 97.8° (Epoch: 27 March)

Date Brightness Start Highest point End Pass type
(mag) Time Alt. Az. Time Alt. Az. Time Alt. Az.
4 Apr ? 21:30:36 16° N 21:30:36 16° N 21:31:30 10° N visible
5 Apr ? 21:55:13 15° NNW 21:55:13 15° NNW 21:55:58 10° NNW visible
6 Apr ? 20:42:10 11° NNE 20:42:10 11° NNE 20:42:34 10° NNE visible
6 Apr ? 22:19:48 12° NNW 22:19:48 12° NNW 22:20:09 10° NNW visible
7 Apr ? 21:06:44 16° NNE 21:06:44 16° NNE 21:07:43 10° N visible
8 Apr ? 21:31:17 18° N 21:31:17 18° N 21:32:25 10° N visible
9 Apr ? 21:55:49 17° NNW 21:55:49 17° NNW 21:56:50 10° NNW visible
10 Apr ? 20:42:41 13° NE 20:42:41 13° NE 20:43:23 10° NNE visible
10 Apr ? 22:20:19 14° NNW 22:20:19 14° NNW 22:20:55 10° NNW visible
11 Apr ? 21:07:11 18° NNE 21:07:11 18° NNE 21:08:28 10° N visible
12 Apr ? 21:31:39 21° N 21:31:39 21° N 21:33:06 10° N visible
13 Apr ? 21:56:07 20° NNW 21:56:07 20° NNW 21:57:25 10° NNW visible
